Weather History for KMWO - November, 2012

Change the Weather History Date:

Thursday, November 29, 2012

  Actual Average (KDAY) Record (KDAY)
Temperature  
Mean Temperature 33 °F 37 °F  
Max Temperature 47 °F 44 °F 70 °F (1927)
Min Temperature 19 °F 30 °F 2 °F (1958)
Degree Days  
Heating Degree Days 32 28  
Month to date heating degree days 635  
Since 1 July heating degree days 1082  
Cooling Degree Days 0 0  
Month to date cooling degree days 0  
Year to date cooling degree days 891  
Moisture  
Dew Point 28 °F    
Average Humidity 86    
Maximum Humidity 100    
Minimum Humidity 53    
Precipitation  
Precipitation 0.00 in 0.11 in 0.65 in (2011)
Month to date precipitation 3.28  
Year to date precipitation 37.82  
Snow  
Snow 0.00 in 0.10 in 3.20 in (1952)
Month to date snowfall 0.6  
Since 1 July snowfall 1.0  
Since 1 September snowfall 1.0  
Snow Depth -    
Sea Level Pressure  
Sea Level Pressure 30.34 in    
Wind  
Wind Speed 1 mph (SSW)    
Max Wind Speed 12 mph    
Max Gust Speed -    
Visibility 7 miles    
Events      
T = Trace of Precipitation, MM = Missing Value Source: NWS Daily Summary

Daily Weather History Graph

Daily Weather History Graph

Search for Another Location

Airport or City:

Trip Planner

Search our weather history database for the weather conditions in past years. The results will help you decide how hot, cold, wet, or windy it might be!

Date:

Astronomy

Nov. 29, 2012 Rise Set
Actual Time 7:37 AM EST 5:14 PM EST
Civil Twilight 7:07 AM EST 5:44 PM EST
Nautical Twilight 6:34 AM EST 6:17 PM EST
Astronomical Twilight 6:02 AM EST 6:49 PM EST
Moon 6:16 PM EST (11/29) 8:23 AM EST (11/29)
Length of Visible Light 10h 36m
Length of Day
9h 37m
Full, 99% of the Moon is Illuminated
Nov 29
Full
Dec 6
Last Quarter
Dec 13
New
Dec 20
First Quarter
Dec 28
Full

Hourly Weather History & Observations

Time (EST) Temp. Windchill Dew Point Humidity Pressure Visibility Wind Dir Wind Speed Gust Speed Precip Events Conditions
12:15 AM 22.8 °F - 22.8 °F 100% 30.41 in 7.0 mi Calm Calm - N/A   Clear
12:35 AM 22.8 °F - 22.8 °F 100% 30.41 in 7.0 mi Calm Calm - N/A   Clear
12:55 AM 22.8 °F - 22.8 °F 100% 30.40 in 7.0 mi Calm Calm - N/A   Clear
1:15 AM 22.8 °F - 22.8 °F 100% 30.41 in 5.0 mi Calm Calm - N/A   Clear
1:35 AM 22.8 °F - 22.8 °F 100% 30.41 in 5.0 mi Calm Calm - N/A   Clear
1:55 AM 22.8 °F - 22.8 °F 100% 30.40 in 5.0 mi Calm Calm - N/A   Clear
2:15 AM 20.8 °F - 20.8 °F 100% 30.41 in 5.0 mi Calm Calm - N/A   Clear
2:35 AM 21.7 °F - 21.7 °F 100% 30.41 in 5.0 mi Calm Calm - N/A   Clear
2:55 AM 21.6 °F - 21.6 °F 100% 30.41 in 5.0 mi Calm Calm - N/A   Clear
3:15 AM 21.6 °F - 21.6 °F 100% 30.41 in 5.0 mi Calm Calm - N/A   Clear
3:35 AM 21.0 °F - 21.0 °F 100% 30.41 in 5.0 mi Calm Calm - N/A   Clear
3:55 AM 21.4 °F - 21.4 °F 100% 30.41 in 5.0 mi Calm Calm - N/A   Clear
4:15 AM 22.1 °F - 22.1 °F 100% 30.40 in 4.0 mi Calm Calm - N/A   Clear
4:35 AM 21.2 °F - 21.2 °F 100% 30.41 in 4.0 mi Calm Calm - N/A   Clear
4:55 AM 21.6 °F - 21.6 °F 100% 30.40 in 5.0 mi Calm Calm - N/A   Clear
5:15 AM 21.6 °F - 21.6 °F 100% 30.40 in 4.0 mi Calm Calm - N/A   Clear
5:35 AM 21.9 °F - 21.9 °F 100% 30.40 in 3.0 mi Calm Calm - N/A   Clear
5:55 AM 20.7 °F - 20.7 °F 100% 30.40 in 4.0 mi Calm Calm - N/A   Clear
6:15 AM 20.3 °F - 20.3 °F 100% 30.40 in 5.0 mi Calm Calm - N/A   Clear
6:35 AM 20.3 °F - 20.3 °F 100% 30.40 in 5.0 mi Calm Calm - N/A   Clear
6:55 AM 20.3 °F - 20.3 °F 100% 30.41 in 4.0 mi Calm Calm - N/A   Clear
7:15 AM 20.3 °F - 20.3 °F 100% 30.41 in 4.0 mi Calm Calm - N/A   Clear
7:35 AM 19.4 °F - 19.4 °F 100% 30.42 in 3.0 mi Calm Calm - N/A   Clear
7:55 AM 20.1 °F - 20.1 °F 100% 30.41 in 2.5 mi Calm Calm - N/A   Clear
8:15 AM 20.7 °F - 20.7 °F 100% 30.40 in 2.5 mi Calm Calm - N/A   Clear
8:35 AM 21.6 °F - 21.6 °F 100% 30.40 in 2.5 mi Calm Calm - N/A   Clear
8:55 AM 26.6 °F - 26.6 °F 100% 30.40 in 3.0 mi Calm Calm - N/A   Clear
9:15 AM 27.9 °F - 27.9 °F 100% 30.40 in 4.0 mi Calm Calm - N/A   Clear
9:35 AM 30.0 °F - 30.0 °F 100% 30.40 in 5.0 mi Calm Calm - N/A   Clear
9:55 AM 32.5 °F 29.3 °F 31.8 °F 97% 30.40 in 5.0 mi SW 3.5 mph - N/A   Clear
10:15 AM 33.4 °F 29.1 °F 31.5 °F 92% 30.40 in 7.0 mi WSW 4.6 mph - N/A   Clear
10:35 AM 35.1 °F 30.1 °F 31.8 °F 88% 30.41 in 5.0 mi WSW 5.8 mph - N/A   Clear
11:15 AM 38.8 °F 33.2 °F 32.0 °F 76% 30.39 in 7.0 mi SW 8.1 mph - N/A   Clear
11:35 AM 40.6 °F 34.8 °F 32.0 °F 71% 30.38 in 7.0 mi SW 9.2 mph - N/A   Clear
11:55 AM 41.4 °F 36.8 °F 32.0 °F 69% 30.37 in 10.0 mi SW 6.9 mph - N/A   Clear
12:15 PM 42.8 °F 38.6 °F 32.0 °F 66% 30.36 in 10.0 mi SW 6.9 mph - N/A   Clear
12:55 PM 47.7 °F - 33.4 °F 58% 30.33 in 10.0 mi SW 11.5 mph - N/A   Clear
1:15 PM 47.7 °F - 32.7 °F 56% 30.33 in 10.0 mi SW 9.2 mph - N/A   Clear
1:35 PM 47.7 °F - 32.9 °F 57% 30.32 in 10.0 mi SSW 6.9 mph - N/A   Clear
1:55 PM 47.7 °F - 31.8 °F 54% 30.31 in 10.0 mi SSW 5.8 mph - N/A   Clear
2:15 PM 47.7 °F - 31.5 °F 53% 30.30 in 10.0 mi SW 9.2 mph - N/A   Clear
2:35 PM 47.7 °F - 31.3 °F 53% 30.29 in 10.0 mi SSW 8.1 mph - N/A   Clear
2:55 PM 47.7 °F - 31.5 °F 53% 30.28 in 10.0 mi South 6.9 mph - N/A   Clear
3:15 PM 47.7 °F - 31.1 °F 53% 30.27 in 10.0 mi South 10.4 mph - N/A   Clear
3:35 PM 47.7 °F - 31.5 °F 53% 30.27 in 10.0 mi SSW 9.2 mph - N/A   Clear
3:55 PM 47.7 °F - 31.5 °F 53% 30.27 in 10.0 mi South 8.1 mph - N/A   Clear
4:15 PM 47.7 °F - 32.0 °F 55% 30.27 in 10.0 mi South 9.2 mph - N/A   Clear
4:35 PM 47.7 °F - 32.4 °F 55% 30.27 in 10.0 mi SSW 8.1 mph - N/A   Clear
4:55 PM 45.1 °F 42.8 °F 31.6 °F 59% 30.27 in 10.0 mi South 4.6 mph - N/A   Clear
5:15 PM 41.7 °F - 30.2 °F 64% 30.27 in 10.0 mi Calm Calm - N/A   Clear
5:35 PM 41.2 °F - 31.3 °F 68% 30.27 in 10.0 mi Calm Calm - N/A   Clear
5:55 PM 37.6 °F - 30.7 °F 76% 30.27 in 10.0 mi Calm Calm - N/A   Clear
6:15 PM 35.1 °F - 30.9 °F 85% 30.27 in 10.0 mi Calm Calm - N/A   Clear
6:35 PM 35.1 °F - 31.1 °F 85% 30.27 in 10.0 mi Calm Calm - N/A   Clear
6:55 PM 34.9 °F - 30.9 °F 85% 30.27 in 10.0 mi Calm Calm - N/A   Clear
7:15 PM 33.4 °F - 30.9 °F 90% 30.27 in 10.0 mi Calm Calm - N/A   Clear
7:35 PM 32.5 °F - 30.2 °F 91% 30.26 in 10.0 mi Calm Calm - N/A   Clear
7:55 PM 32.5 °F - 30.0 °F 90% 30.26 in 10.0 mi Calm Calm - N/A   Clear
8:15 PM 32.5 °F - 30.6 °F 92% 30.26 in 10.0 mi Calm Calm - N/A   Clear
8:35 PM 32.5 °F - 31.1 °F 94% 30.26 in 10.0 mi Calm Calm - N/A   Clear
8:55 PM 32.5 °F - 30.7 °F 93% 30.26 in 10.0 mi Calm Calm - N/A   Clear
9:15 PM 32.5 °F - 30.7 °F 93% 30.25 in 10.0 mi Calm Calm - N/A   Clear
9:35 PM 32.5 °F - 30.7 °F 93% 30.25 in 10.0 mi Calm Calm - N/A   Clear
9:55 PM 32.5 °F - 31.1 °F 94% 30.25 in 10.0 mi Calm Calm - N/A   Clear
10:15 PM 32.5 °F - 31.1 °F 94% 30.25 in 10.0 mi Calm Calm - N/A   Clear
10:35 PM 32.5 °F - 31.6 °F 96% 30.25 in 10.0 mi Calm Calm - N/A   Clear
10:55 PM 32.5 °F - 31.6 °F 96% 30.25 in 10.0 mi Calm Calm - N/A   Clear
11:15 PM 32.5 °F - 32.0 °F 98% 30.25 in 10.0 mi Calm Calm - N/A   Clear
11:35 PM 32.5 °F - 32.0 °F 98% 30.25 in 10.0 mi Calm Calm - N/A   Clear
11:55 PM 30.2 °F - 29.5 °F 97% 30.25 in 10.0 mi Calm Calm - N/A   Clear